Time,TemperatureF,DewpointF,PressureIn,WindDirection,WindDirectionDegrees,WindSpeedMPH,WindSpeedGustMPH,Humidity,HourlyPrecipIn,Conditions,Clouds,dailyrainin,SoftwareType,DateUTC
2013-04-10 00:00:00,64.1,59.8,30.14,East,100,0.0,0.0,86,0.00,,FEW250,0.00,VWS V14.01,2013-04-10 04:00:00,
2013-04-10 00:01:00,64.0,60.1,30.15,East,100,0.0,0.0,87,0.00,,FEW250,0.00,VWS V14.01,2013-04-10 04:01:00,
2013-04-10 00:06:00,63.9,60.3,30.15,East,100,0.0,0.0,88,0.00,,FEW250,0.00,VWS V14.01,2013-04-10 04:06:00,
2013-04-10 00:11:00,63.8,60.2,30.14,East,100,0.0,0.0,88,0.00,,FEW250,0.00,VWS V14.01,2013-04-10 04:11:00,
2013-04-10 00:16:00,63.7,60.4,30.15,East,100,0.0,0.0,89,0.00,,FEW250,0.00,VWS V14.01,2013-04-10 04:16:00,
2013-04-10 00:21:00,63.6,60.3,30.14,East,100,0.0,0.0,89,0.00,,FEW250,0.00,VWS V14.01,2013-04-10 04:21:00,
2013-04-10 00:26:00,63.6,60.3,30.14,East,100,0.0,0.0,89,0.00,,FEW250,0.00,VWS V14.01,2013-04-10 04:26:00,
2013-04-10 00:32:00,63.6,60.3,30.14,East,100,0.0,0.0,89,0.00,,FEW250,0.00,VWS V14.01,2013-04-10 04:32:00,
2013-04-10 00:37:00,63.4,60.1,30.14,East,100,0.0,0.0,89,0.00,,FEW250,0.00,VWS V14.01,2013-04-10 04:37:00,
2013-04-10 00:42:00,63.3,60.3,30.14,East,100,0.0,0.0,90,0.00,,FEW250,0.00,VWS V14.01,2013-04-10 04:42:00,
2013-04-10 00:47:00,63.3,60.3,30.14,East,100,0.0,0.0,90,0.00,,FEW250,0.00,VWS V14.01,2013-04-10 04:47:00,
2013-04-10 00:52:00,63.3,60.6,30.13,East,100,0.0,0.0,91,0.00,,FEW250,0.00,VWS V14.01,2013-04-10 04:52:00,
2013-04-10 00:57:00,63.3,60.6,30.13,East,100,0.0,2.0,91,0.00,,FEW250,0.00,VWS V14.01,2013-04-10 04:57:00,
2013-04-10 01:02:00,63.3,60.6,30.13,East,100,0.0,0.0,91,0.00,,SCT250,0.00,VWS V14.01,2013-04-10 05:02:00,
2013-04-10 01:07:00,63.2,60.5,30.13,East,100,0.0,0.0,91,0.00,,SCT250,0.00,VWS V14.01,2013-04-10 05:07:00,
2013-04-10 01:13:00,63.3,60.9,30.13,East,100,0.0,2.0,92,0.00,,SCT250,0.00,VWS V14.01,2013-04-10 05:13:00,
2013-04-10 01:18:00,63.3,60.9,30.13,East,100,0.0,0.0,92,0.00,,SCT250,0.00,VWS V14.01,2013-04-10 05:18:00,
2013-04-10 01:22:00,63.3,60.9,30.13,East,100,0.0,0.0,92,0.00,,SCT250,0.00,VWS V14.01,2013-04-10 05:22:00,
2013-04-10 01:28:00,63.4,61.0,30.13,East,100,0.0,0.0,92,0.00,,SCT250,0.00,VWS V14.01,2013-04-10 05:28:00,
2013-04-10 01:33:00,63.2,60.5,30.13,East,100,0.0,0.0,91,0.00,,SCT250,0.00,VWS V14.01,2013-04-10 05:33:00,
2013-04-10 01:38:00,63.2,60.8,30.12,East,100,0.0,0.0,92,0.00,,SCT250,0.00,VWS V14.01,2013-04-10 05:38:00,
2013-04-10 01:43:00,63.1,60.7,30.12,East,100,0.0,0.0,92,0.00,,SCT250,0.00,VWS V14.01,2013-04-10 05:43:00,
2013-04-10 01:48:00,63.1,60.7,30.12,East,100,0.0,0.0,92,0.00,,SCT250,0.00,VWS V14.01,2013-04-10 05:48:00,
2013-04-10 01:53:00,63.0,60.6,30.12,East,100,0.0,0.0,92,0.00,,SCT250,0.00,VWS V14.01,2013-04-10 05:53:00,
2013-04-10 01:58:00,62.8,60.5,30.12,East,100,0.0,0.0,92,0.00,,SCT250,0.00,VWS V14.01,2013-04-10 05:58:00,
2013-04-10 02:03:00,62.6,60.5,30.12,East,100,0.0,0.0,93,0.00,,BKN250,0.00,VWS V14.01,2013-04-10 06:03:00,
2013-04-10 02:08:00,62.5,60.5,30.12,East,100,0.0,0.0,93,0.00,,BKN250,0.00,VWS V14.01,2013-04-10 06:08:00,
2013-04-10 02:14:00,62.3,60.2,30.11,East,100,0.0,0.0,93,0.00,,BKN250,0.00,VWS V14.01,2013-04-10 06:14:00,
2013-04-10 02:19:00,62.2,60.2,30.11,East,100,0.0,0.0,93,0.00,,BKN250,0.00,VWS V14.01,2013-04-10 06:19:00,
2013-04-10 02:24:00,62.1,60.1,30.11,East,100,0.0,0.0,93,0.00,,BKN250,0.00,VWS V14.01,2013-04-10 06:24:00,
2013-04-10 02:29:00,62.0,60.3,30.11,East,100,0.0,0.0,94,0.00,,BKN250,0.00,VWS V14.01,2013-04-10 06:29:00,
2013-04-10 02:34:00,61.9,60.2,30.10,East,100,0.0,0.0,94,0.00,,BKN250,0.00,VWS V14.01,2013-04-10 06:34:00,
2013-04-10 02:39:00,61.8,60.1,30.10,East,100,0.0,0.0,94,0.00,,BKN250,0.00,VWS V14.01,2013-04-10 06:39:00,
2013-04-10 02:44:00,61.7,60.0,30.10,East,100,0.0,0.0,94,0.00,,BKN250,0.00,VWS V14.01,2013-04-10 06:44:00,
2013-04-10 02:49:00,61.6,59.9,30.09,East,100,0.0,0.0,94,0.00,,BKN250,0.00,VWS V14.01,2013-04-10 06:49:00,
2013-04-10 02:54:00,61.4,59.7,30.09,East,100,0.0,0.0,94,0.00,,BKN250,0.00,VWS V14.01,2013-04-10 06:54:00,
2013-04-10 02:59:00,61.4,60.0,30.09,East,100,0.0,0.0,95,0.00,,BKN250,0.00,VWS V14.01,2013-04-10 06:59:00,
2013-04-10 03:04:00,61.4,60.0,30.08,East,100,0.0,0.0,95,0.00,,SCT250,0.00,VWS V14.01,2013-04-10 07:04:00,
2013-04-10 03:09:00,61.4,60.0,30.09,East,100,0.0,0.0,95,0.00,,SCT250,0.00,VWS V14.01,2013-04-10 07:09:00,
2013-04-10 03:14:00,61.4,60.0,30.09,East,100,0.0,0.0,95,0.00,,SCT250,0.00,VWS V14.01,2013-04-10 07:14:00,
2013-04-10 03:19:00,61.3,59.9,30.09,East,100,0.0,0.0,95,0.00,,SCT250,0.00,VWS V14.01,2013-04-10 07:19:00,
2013-04-10 03:24:00,61.2,59.8,30.09,East,100,0.0,0.0,95,0.00,,SCT250,0.00,VWS V14.01,2013-04-10 07:24:00,
2013-04-10 03:29:00,61.1,59.7,30.09,East,100,0.0,0.0,95,0.00,,SCT250,0.00,VWS V14.01,2013-04-10 07:29:00,
2013-04-10 03:34:00,61.0,59.6,30.09,East,100,0.0,0.0,95,0.00,,SCT250,0.00,VWS V14.01,2013-04-10 07:34:00,
2013-04-10 03:39:00,61.0,59.9,30.09,East,100,0.0,0.0,96,0.00,,SCT250,0.00,VWS V14.01,2013-04-10 07:39:00,
2013-04-10 03:44:00,61.0,59.6,30.09,East,100,0.0,0.0,95,0.00,,SCT250,0.00,VWS V14.01,2013-04-10 07:44:00,
2013-04-10 03:49:00,60.8,59.4,30.09,East,100,0.0,0.0,95,0.00,,SCT250,0.00,VWS V14.01,2013-04-10 07:49:00,
2013-04-10 03:55:00,60.7,59.3,30.09,East,100,0.0,0.0,95,0.00,,SCT250,0.00,VWS V14.01,2013-04-10 07:55:00,
2013-04-10 04:00:00,60.5,59.1,30.09,East,100,0.0,0.0,95,0.00,,SCT250,0.00,VWS V14.01,2013-04-10 08:00:00,
2013-04-10 04:05:00,60.5,59.1,30.08,East,100,0.0,0.0,95,0.00,,SCT250,0.00,VWS V14.01,2013-04-10 08:05:00,
2013-04-10 04:10:00,60.4,59.3,30.08,East,100,0.0,0.0,96,0.00,,SCT250,0.00,VWS V14.01,2013-04-10 08:10:00,
2013-04-10 04:15:00,60.4,59.3,30.08,East,100,0.0,0.0,96,0.00,,SCT250,0.00,VWS V14.01,2013-04-10 08:15:00,
2013-04-10 04:20:00,60.3,59.2,30.08,East,100,0.0,0.0,96,0.00,,SCT250,0.00,VWS V14.01,2013-04-10 08:20:00,
2013-04-10 04:25:00,60.2,59.1,30.08,East,100,0.0,0.0,96,0.00,,SCT250,0.00,VWS V14.01,2013-04-10 08:25:00,
2013-04-10 04:30:00,60.2,59.1,30.08,East,100,0.0,0.0,96,0.00,,SCT250,0.00,VWS V14.01,2013-04-10 08:30:00,
2013-04-10 04:35:00,60.1,59.0,30.08,East,100,0.0,0.0,96,0.00,,SCT250,0.00,VWS V14.01,2013-04-10 08:35:00,
2013-04-10 04:40:00,60.0,58.9,30.09,East,100,0.0,0.0,96,0.00,,SCT250,0.00,VWS V14.01,2013-04-10 08:40:00,
2013-04-10 04:45:00,59.9,58.5,30.09,East,100,0.0,0.0,95,0.00,,SCT250,0.00,VWS V14.01,2013-04-10 08:45:00,
2013-04-10 04:50:00,59.7,58.3,30.09,East,100,0.0,0.0,95,0.00,,SCT250,0.00,VWS V14.01,2013-04-10 08:50:00,
2013-04-10 04:55:00,59.6,58.5,30.09,East,100,0.0,0.0,96,0.00,,SCT250,0.00,VWS V14.01,2013-04-10 08:55:00,
2013-04-10 05:00:00,59.5,58.1,30.09,East,100,0.0,0.0,95,0.00,,FEW250,0.00,VWS V14.01,2013-04-10 09:00:00,
2013-04-10 05:06:00,59.4,58.3,30.09,East,100,0.0,0.0,96,0.00,,FEW250,0.00,VWS V14.01,2013-04-10 09:06:00,
2013-04-10 05:11:00,59.3,58.2,30.09,East,100,0.0,0.0,96,0.00,,FEW250,0.00,VWS V14.01,2013-04-10 09:11:00,
2013-04-10 05:16:00,59.2,58.1,30.09,East,100,0.0,0.0,96,0.00,,FEW250,0.00,VWS V14.01,2013-04-10 09:16:00,
2013-04-10 05:21:00,59.1,58.0,30.09,East,100,0.0,0.0,96,0.00,,FEW250,0.00,VWS V14.01,2013-04-10 09:21:00,
2013-04-10 05:26:00,59.1,58.0,30.09,East,100,0.0,0.0,96,0.00,,FEW250,0.00,VWS V14.01,2013-04-10 09:26:00,
2013-04-10 05:31:00,59.1,58.0,30.09,East,100,0.0,0.0,96,0.00,,FEW250,0.00,VWS V14.01,2013-04-10 09:31:00,
2013-04-10 05:36:00,59.2,58.3,30.09,East,100,0.0,0.0,97,0.00,,FEW250,0.00,VWS V14.01,2013-04-10 09:36:00,
2013-04-10 05:41:00,59.2,58.1,30.08,East,100,0.0,0.0,96,0.00,,FEW250,0.00,VWS V14.01,2013-04-10 09:41:00,
2013-04-10 05:47:00,59.1,58.0,30.08,East,100,0.0,0.0,96,0.00,,FEW250,0.00,VWS V14.01,2013-04-10 09:47:00,
2013-04-10 05:52:00,59.0,57.9,30.08,East,100,0.0,0.0,96,0.00,,FEW250,0.00,VWS V14.01,2013-04-10 09:52:00,
2013-04-10 05:57:00,58.9,57.8,30.08,East,100,0.0,0.0,96,0.00,,FEW250,0.00,VWS V14.01,2013-04-10 09:57:00,
2013-04-10 06:02:00,58.9,57.8,30.08,East,100,0.0,0.0,96,0.00,,,0.00,VWS V14.01,2013-04-10 10:02:00,
2013-04-10 06:07:00,59.0,58.2,30.09,East,100,0.0,0.0,97,0.00,,,0.00,VWS V14.01,2013-04-10 10:07:00,
2013-04-10 06:12:00,59.0,58.2,30.09,East,100,0.0,0.0,97,0.00,,,0.00,VWS V14.01,2013-04-10 10:12:00,
2013-04-10 06:17:00,59.0,58.2,30.09,East,100,0.0,0.0,97,0.00,,,0.00,VWS V14.01,2013-04-10 10:17:00,
2013-04-10 06:22:00,59.0,58.2,30.09,East,100,0.0,0.0,97,0.00,,,0.00,VWS V14.01,2013-04-10 10:22:00,
2013-04-10 06:27:00,59.0,58.2,30.09,East,100,0.0,0.0,97,0.00,,,0.00,VWS V14.01,2013-04-10 10:27:00,
2013-04-10 06:32:00,59.0,58.2,30.09,East,100,0.0,0.0,97,0.00,,,0.00,VWS V14.01,2013-04-10 10:32:00,
2013-04-10 06:37:00,59.0,58.2,30.09,East,100,0.0,0.0,97,0.00,,,0.00,VWS V14.01,2013-04-10 10:37:00,
2013-04-10 06:43:00,58.9,58.0,30.08,East,100,0.0,0.0,97,0.00,,,0.00,VWS V14.01,2013-04-10 10:43:00,
2013-04-10 06:48:00,58.9,58.0,30.08,East,100,0.0,0.0,97,0.00,,,0.00,VWS V14.01,2013-04-10 10:48:00,
2013-04-10 06:53:00,58.9,58.0,30.08,East,100,0.0,0.0,97,0.00,,,0.00,VWS V14.01,2013-04-10 10:53:00,
2013-04-10 06:58:00,58.9,58.0,30.09,East,100,0.0,0.0,97,0.00,,,0.00,VWS V14.01,2013-04-10 10:58:00,
2013-04-10 07:03:00,58.9,58.0,30.09,East,100,0.0,0.0,97,0.00,,,0.00,VWS V14.01,2013-04-10 11:03:00,
2013-04-10 07:08:00,58.8,58.0,30.09,East,100,0.0,0.0,97,0.00,,,0.00,VWS V14.01,2013-04-10 11:08:00,
2013-04-10 07:13:00,58.7,57.8,30.09,East,100,0.0,0.0,97,0.00,,,0.00,VWS V14.01,2013-04-10 11:13:00,
2013-04-10 07:18:00,58.7,57.8,30.09,East,100,0.0,0.0,97,0.00,,,0.00,VWS V14.01,2013-04-10 11:18:00,
2013-04-10 07:23:00,58.7,57.8,30.09,East,100,0.0,0.0,97,0.00,,,0.00,VWS V14.01,2013-04-10 11:23:00,
2013-04-10 07:28:00,58.8,58.0,30.09,East,100,0.0,0.0,97,0.00,,,0.00,VWS V14.01,2013-04-10 11:28:00,
2013-04-10 07:33:00,58.9,58.0,30.09,East,100,0.0,0.0,97,0.00,,,0.00,VWS V14.01,2013-04-10 11:33:00,
2013-04-10 07:38:00,59.0,58.2,30.09,East,100,0.0,0.0,97,0.00,,,0.00,VWS V14.01,2013-04-10 11:38:00,
2013-04-10 07:44:00,59.0,58.4,30.09,East,100,0.0,0.0,98,0.00,,,0.00,VWS V14.01,2013-04-10 11:44:00,
2013-04-10 07:49:00,59.1,58.5,30.09,East,100,0.0,0.0,98,0.00,,,0.00,VWS V14.01,2013-04-10 11:49:00,
2013-04-10 07:54:00,59.4,58.8,30.09,East,100,0.0,0.0,98,0.00,,,0.00,VWS V14.01,2013-04-10 11:54:00,
2013-04-10 07:59:00,59.7,59.1,30.09,East,100,0.0,0.0,98,0.00,,,0.00,VWS V14.01,2013-04-10 11:59:00,
2013-04-10 08:04:00,60.1,59.5,30.10,East,100,0.0,0.0,98,0.00,,SCT250,0.00,VWS V14.01,2013-04-10 12:04:00,
2013-04-10 08:09:00,60.9,60.3,30.10,East,100,0.0,0.0,98,0.00,,SCT250,0.00,VWS V14.01,2013-04-10 12:09:00,
2013-04-10 08:14:00,61.9,61.6,30.10,East,100,0.0,0.0,99,0.00,,SCT250,0.00,VWS V14.01,2013-04-10 12:14:00,
2013-04-10 08:19:00,62.8,62.5,30.10,East,100,0.0,0.0,99,0.00,,SCT250,0.00,VWS V14.01,2013-04-10 12:19:00,
2013-04-10 08:24:00,63.9,63.6,30.10,East,100,0.0,0.0,99,0.00,,SCT250,0.00,VWS V14.01,2013-04-10 12:24:00,
2013-04-10 08:29:00,64.5,64.2,30.10,East,100,0.0,0.0,99,0.00,,SCT250,0.00,VWS V14.01,2013-04-10 12:29:00,
2013-04-10 08:34:00,65.4,65.1,30.10,East,100,0.0,0.0,99,0.00,,SCT250,0.00,VWS V14.01,2013-04-10 12:34:00,
2013-04-10 08:39:00,66.1,65.8,30.10,East,100,0.0,0.0,99,0.00,,SCT250,0.00,VWS V14.01,2013-04-10 12:39:00,
2013-04-10 08:44:00,66.8,66.2,30.10,East,100,0.0,0.0,98,0.00,,SCT250,0.00,VWS V14.01,2013-04-10 12:44:00,
2013-04-10 08:49:00,67.6,66.1,30.10,East,100,2.0,2.0,95,0.00,,SCT250,0.00,VWS V14.01,2013-04-10 12:49:00,
2013-04-10 08:54:00,68.6,66.2,30.10,East,100,2.0,2.0,92,0.00,,SCT250,0.00,VWS V14.01,2013-04-10 12:54:00,
2013-04-10 09:00:00,69.8,66.7,30.10,East,100,4.0,4.0,90,0.00,,SCT250,0.00,VWS V14.01,2013-04-10 13:00:00,
2013-04-10 09:05:00,70.8,67.1,30.10,East,100,0.0,0.0,88,0.00,,FEW022,0.00,VWS V14.01,2013-04-10 13:05:00,
2013-04-10 09:10:00,71.9,67.5,30.10,East,100,2.0,2.0,86,0.00,,FEW022,0.00,VWS V14.01,2013-04-10 13:10:00,
2013-04-10 09:15:00,73.1,68.0,30.10,East,100,0.0,0.0,84,0.00,,FEW022,0.00,VWS V14.01,2013-04-10 13:15:00,
2013-04-10 09:20:00,73.9,67.7,30.10,East,101,8.0,8.0,81,0.00,,FEW022,0.00,VWS V14.01,2013-04-10 13:20:00,
2013-04-10 09:25:00,74.1,67.9,30.10,ESE,105,8.0,8.0,81,0.00,,FEW022,0.00,VWS V14.01,2013-04-10 13:25:00,
2013-04-10 09:30:00,74.4,67.5,30.10,East,99,4.0,8.0,79,0.00,,FEW022,0.00,VWS V14.01,2013-04-10 13:30:00,
2013-04-10 09:35:00,74.7,68.1,30.10,East,83,6.0,6.0,80,0.00,,FEW022,0.00,VWS V14.01,2013-04-10 13:35:00,
2013-04-10 09:40:00,75.1,68.2,30.10,ESE,117,8.0,8.0,79,0.00,,FEW022,0.00,VWS V14.01,2013-04-10 13:40:00,
2013-04-10 09:45:00,75.4,67.3,30.10,ENE,60,8.0,8.0,76,0.00,,FEW022,0.00,VWS V14.01,2013-04-10 13:45:00,
2013-04-10 09:50:00,75.4,67.7,30.11,SSE,163,4.0,4.0,77,0.00,,FEW022,0.00,VWS V14.01,2013-04-10 13:50:00,
2013-04-10 09:56:00,75.7,67.6,30.11,East,93,0.0,4.0,76,0.00,,FEW022,0.00,VWS V14.01,2013-04-10 13:56:00,
2013-04-10 10:01:00,76.3,67.8,30.11,SE,141,2.0,6.0,75,0.00,,SCT021,0.00,VWS V14.01,2013-04-10 14:01:00,
2013-04-10 10:06:00,76.7,67.4,30.11,East,82,4.0,10.0,73,0.00,,SCT021,0.00,VWS V14.01,2013-04-10 14:06:00,
2013-04-10 10:11:00,76.7,67.0,30.12,ESE,103,8.0,14.0,72,0.00,,SCT021,0.00,VWS V14.01,2013-04-10 14:11:00,
2013-04-10 10:16:00,76.8,67.9,30.12,SE,134,6.0,8.0,74,0.00,,SCT021,0.00,VWS V14.01,2013-04-10 14:16:00,
2013-04-10 10:21:00,76.9,67.2,30.12,ESE,107,4.0,14.0,72,0.00,,SCT021,0.00,VWS V14.01,2013-04-10 14:21:00,
2013-04-10 10:26:00,76.8,67.5,30.12,ESE,103,2.0,4.0,73,0.00,,SCT021,0.00,VWS V14.01,2013-04-10 14:26:00,
2013-04-10 10:31:00,77.6,67.5,30.11,East,100,8.0,14.0,71,0.00,,SCT021,0.00,VWS V14.01,2013-04-10 14:31:00,
2013-04-10 10:37:00,78.3,67.3,30.11,East,99,4.0,10.0,69,0.00,,SCT021,0.00,VWS V14.01,2013-04-10 14:37:00,
2013-04-10 10:42:00,78.7,67.7,30.11,ESE,118,4.0,4.0,69,0.00,,SCT021,0.00,VWS V14.01,2013-04-10 14:42:00,
2013-04-10 10:47:00,78.3,66.9,30.11,ESE,119,8.0,10.0,68,0.00,,SCT021,0.00,VWS V14.01,2013-04-10 14:47:00,
2013-04-10 10:52:00,77.3,66.8,30.11,East,88,2.0,10.0,70,0.00,,SCT021,0.00,VWS V14.01,2013-04-10 14:52:00,
2013-04-10 10:57:00,76.9,66.8,30.11,East,93,2.0,10.0,71,0.00,,SCT021,0.00,VWS V14.01,2013-04-10 14:57:00,
2013-04-10 11:02:00,77.8,67.2,30.11,East,79,4.0,12.0,70,0.00,,SCT026,0.00,VWS V14.01,2013-04-10 15:02:00,
2013-04-10 11:07:00,79.1,67.6,30.10,NE,49,2.0,12.0,68,0.00,,SCT026,0.00,VWS V14.01,2013-04-10 15:07:00,
2013-04-10 11:12:00,80.2,66.5,30.10,East,84,4.0,18.0,63,0.00,,SCT026,0.00,VWS V14.01,2013-04-10 15:12:00,
2013-04-10 11:17:00,81.0,66.8,30.10,SSE,168,2.0,8.0,62,0.00,,SCT026,0.00,VWS V14.01,2013-04-10 15:17:00,
2013-04-10 11:22:00,81.6,66.9,30.10,ESE,106,2.0,14.0,61,0.00,,SCT026,0.00,VWS V14.01,2013-04-10 15:22:00,
2013-04-10 11:27:00,82.0,67.7,30.10,East,99,6.0,12.0,62,0.00,,SCT026,0.00,VWS V14.01,2013-04-10 15:27:00,
2013-04-10 11:32:00,82.0,66.8,30.10,East,98,8.0,14.0,60,0.00,,SCT026,0.00,VWS V14.01,2013-04-10 15:32:00,
2013-04-10 11:38:00,82.3,65.1,30.10,ESE,108,4.0,14.0,56,0.00,,SCT026,0.00,VWS V14.01,2013-04-10 15:38:00,
2013-04-10 11:43:00,82.8,65.5,30.10,SE,146,4.0,10.0,56,0.00,,SCT026,0.00,VWS V14.01,2013-04-10 15:43:00,
2013-04-10 11:48:00,82.8,66.0,30.10,ENE,77,2.0,14.0,57,0.00,,SCT026,0.00,VWS V14.01,2013-04-10 15:48:00,
2013-04-10 11:53:00,83.4,66.6,30.10,SSE,165,0.0,8.0,57,0.00,,SCT026,0.00,VWS V14.01,2013-04-10 15:53:00,
2013-04-10 11:58:00,84.0,66.1,30.10,ESE,116,4.0,14.0,55,0.00,,SCT026,0.00,VWS V14.01,2013-04-10 15:58:00,
2013-04-10 12:03:00,84.2,65.8,30.10,ESE,107,10.0,14.0,54,0.00,,SCT055,0.00,VWS V14.01,2013-04-10 16:03:00,
2013-04-10 12:08:00,84.3,65.9,30.10,ESE,103,8.0,14.0,54,0.00,,SCT055,0.00,VWS V14.01,2013-04-10 16:08:00,
2013-04-10 12:13:00,84.6,66.1,30.09,SSW,209,6.0,10.0,54,0.00,,SCT055,0.00,VWS V14.01,2013-04-10 16:13:00,
2013-04-10 12:18:00,84.4,65.9,30.09,East,88,2.0,12.0,54,0.00,,SCT055,0.00,VWS V14.01,2013-04-10 16:18:00,
2013-04-10 12:23:00,84.2,64.7,30.09,WSW,253,0.0,6.0,52,0.00,,SCT055,0.00,VWS V14.01,2013-04-10 16:23:00,
2013-04-10 12:28:00,83.9,66.0,30.09,NNW,327,2.0,10.0,55,0.00,,SCT055,0.00,VWS V14.01,2013-04-10 16:28:00,
2013-04-10 12:33:00,84.1,65.7,30.09,SW,228,2.0,4.0,54,0.00,,SCT055,0.00,VWS V14.01,2013-04-10 16:33:00,
2013-04-10 12:39:00,84.6,65.6,30.08,SSW,209,2.0,8.0,53,0.00,,SCT055,0.00,VWS V14.01,2013-04-10 16:39:00,
2013-04-10 12:44:00,84.3,64.2,30.09,East,89,10.0,10.0,51,0.00,,SCT055,0.00,VWS V14.01,2013-04-10 16:44:00,
2013-04-10 12:49:00,83.6,64.1,30.08,East,99,6.0,20.0,52,0.00,,SCT055,0.00,VWS V14.01,2013-04-10 16:49:00,
2013-04-10 12:54:00,83.7,64.2,30.08,East,90,12.0,16.0,52,0.00,,SCT055,0.00,VWS V14.01,2013-04-10 16:54:00,
2013-04-10 12:59:00,83.6,64.7,30.08,SSE,168,0.0,10.0,53,0.00,,SCT055,0.00,VWS V14.01,2013-04-10 16:59:00,
2013-04-10 13:04:00,83.2,64.3,30.08,SSE,153,2.0,8.0,53,0.00,,SCT045,0.00,VWS V14.01,2013-04-10 17:04:00,
2013-04-10 13:09:00,82.9,63.5,30.08,SSE,153,0.0,8.0,52,0.00,,SCT045,0.00,VWS V14.01,2013-04-10 17:09:00,
2013-04-10 13:14:00,82.9,65.6,30.07,ESE,122,8.0,14.0,56,0.00,,SCT045,0.00,VWS V14.01,2013-04-10 17:14:00,
2013-04-10 13:19:00,83.9,64.9,30.07,East,94,8.0,18.0,53,0.00,,SCT045,0.00,VWS V14.01,2013-04-10 17:19:00,
2013-04-10 13:24:00,84.6,64.5,30.07,ESE,105,2.0,16.0,51,0.00,,SCT045,0.00,VWS V14.01,2013-04-10 17:24:00,
2013-04-10 13:29:00,84.9,63.6,30.07,NNW,328,2.0,10.0,49,0.00,,SCT045,0.00,VWS V14.01,2013-04-10 17:29:00,
2013-04-10 13:34:00,85.3,65.7,30.07,East,85,10.0,10.0,52,0.00,,SCT045,0.00,VWS V14.01,2013-04-10 17:34:00,
2013-04-10 13:39:00,85.0,62.5,30.06,ENE,70,0.0,10.0,47,0.00,,SCT045,0.00,VWS V14.01,2013-04-10 17:39:00,
2013-04-10 13:44:00,84.9,64.2,30.07,SSE,149,4.0,10.0,50,0.00,,SCT045,0.00,VWS V14.01,2013-04-10 17:44:00,
2013-04-10 13:49:00,85.8,63.9,30.06,South,189,4.0,8.0,48,0.00,,SCT045,0.00,VWS V14.01,2013-04-10 17:49:00,
2013-04-10 13:54:00,86.2,64.2,30.06,ENE,70,4.0,10.0,48,0.00,,SCT045,0.00,VWS V14.01,2013-04-10 17:54:00,
2013-04-10 13:59:00,86.8,65.4,30.06,East,96,0.0,12.0,49,0.00,,SCT045,0.00,VWS V14.01,2013-04-10 17:59:00,
2013-04-10 14:05:00,87.6,62.4,30.06,SE,124,4.0,4.0,43,0.00,,BKN050,0.00,VWS V14.01,2013-04-10 18:05:00,
2013-04-10 14:10:00,88.1,63.5,30.06,ESE,116,6.0,14.0,44,0.00,,BKN050,0.00,VWS V14.01,2013-04-10 18:10:00,
2013-04-10 14:15:00,87.7,63.1,30.06,East,94,14.0,16.0,44,0.00,,BKN050,0.00,VWS V14.01,2013-04-10 18:15:00,
2013-04-10 14:20:00,86.2,63.6,30.06,East,81,10.0,12.0,47,0.00,,BKN050,0.00,VWS V14.01,2013-04-10 18:20:00,
2013-04-10 14:25:00,85.1,63.8,30.06,ESE,107,2.0,2.0,49,0.00,,BKN050,0.00,VWS V14.01,2013-04-10 18:25:00,
2013-04-10 14:30:00,84.6,65.1,30.05,SE,130,2.0,4.0,52,0.00,,BKN050,0.00,VWS V14.01,2013-04-10 18:30:00,
2013-04-10 14:35:00,84.3,64.8,30.05,East,85,4.0,4.0,52,0.00,,BKN050,0.00,VWS V14.01,2013-04-10 18:35:00,
2013-04-10 14:40:00,84.7,64.0,30.05,ESE,114,0.0,2.0,50,0.00,,BKN050,0.00,VWS V14.01,2013-04-10 18:40:00,
2013-04-10 14:45:00,84.9,64.8,30.05,ESE,115,2.0,6.0,51,0.00,,BKN050,0.00,VWS V14.01,2013-04-10 18:45:00,
2013-04-10 14:50:00,84.5,65.5,30.05,East,96,4.0,4.0,53,0.00,,BKN050,0.00,VWS V14.01,2013-04-10 18:50:00,
2013-04-10 14:55:00,84.0,64.5,30.05,ESE,109,14.0,14.0,52,0.00,,BKN050,0.00,VWS V14.01,2013-04-10 18:55:00,
2013-04-10 15:00:00,83.8,65.9,30.05,East,94,0.0,2.0,55,0.00,,BKN070,0.00,VWS V14.01,2013-04-10 19:00:00,
2013-04-10 15:05:00,83.9,65.5,30.04,ENE,66,0.0,4.0,54,0.00,,BKN070,0.00,VWS V14.01,2013-04-10 19:05:00,
2013-04-10 15:10:00,84.7,66.8,30.04,East,99,8.0,8.0,55,0.00,,BKN070,0.00,VWS V14.01,2013-04-10 19:10:00,
2013-04-10 15:15:00,84.5,66.6,30.04,East,91,12.0,14.0,55,0.00,,BKN070,0.00,VWS V14.01,2013-04-10 19:15:00,
2013-04-10 15:21:00,84.1,66.2,30.04,ENE,72,2.0,6.0,55,0.00,,BKN070,0.00,VWS V14.01,2013-04-10 19:21:00,
2013-04-10 15:26:00,83.8,67.5,30.04,East,82,4.0,10.0,58,0.00,,BKN070,0.00,VWS V14.01,2013-04-10 19:26:00,
2013-04-10 15:31:00,83.8,66.4,30.04,East,95,0.0,4.0,56,0.00,,BKN070,0.00,VWS V14.01,2013-04-10 19:31:00,
2013-04-10 15:36:00,84.1,66.7,30.04,East,89,2.0,2.0,56,0.00,,BKN070,0.00,VWS V14.01,2013-04-10 19:36:00,
2013-04-10 15:41:00,84.4,67.0,30.04,ESE,114,2.0,12.0,56,0.00,,BKN070,0.00,VWS V14.01,2013-04-10 19:41:00,
2013-04-10 15:46:00,85.1,67.1,30.04,North,9,2.0,4.0,55,0.00,,BKN070,0.00,VWS V14.01,2013-04-10 19:46:00,
2013-04-10 15:51:00,85.2,66.2,30.03,ESE,116,8.0,14.0,53,0.00,,BKN070,0.00,VWS V14.01,2013-04-10 19:51:00,
2013-04-10 15:57:00,85.0,66.5,30.03,ESE,117,8.0,8.0,54,0.00,,BKN070,0.00,VWS V14.01,2013-04-10 19:57:00,
2013-04-10 16:02:00,85.1,67.7,30.02,NE,53,6.0,8.0,56,0.00,,SCT060,0.00,VWS V14.01,2013-04-10 20:02:00,
2013-04-10 16:07:00,85.5,67.5,30.02,East,91,4.0,6.0,55,0.00,,SCT060,0.00,VWS V14.01,2013-04-10 20:07:00,
2013-04-10 16:12:00,86.3,68.2,30.02,East,101,4.0,6.0,55,0.00,,SCT060,0.00,VWS V14.01,2013-04-10 20:12:00,
2013-04-10 16:17:00,86.9,66.6,30.01,ESE,119,2.0,4.0,51,0.00,,SCT060,0.00,VWS V14.01,2013-04-10 20:17:00,
2013-04-10 16:22:00,86.6,66.9,30.01,East,98,4.0,8.0,52,0.00,,SCT060,0.00,VWS V14.01,2013-04-10 20:22:00,
2013-04-10 16:27:00,85.7,67.2,30.01,SE,146,8.0,14.0,54,0.00,,SCT060,0.00,VWS V14.01,2013-04-10 20:27:00,
2013-04-10 16:32:00,84.8,66.8,30.00,ENE,66,6.0,10.0,55,0.00,,SCT060,0.00,VWS V14.01,2013-04-10 20:32:00,
2013-04-10 16:38:00,84.5,67.6,30.01,East,99,8.0,8.0,57,0.00,,SCT060,0.00,VWS V14.01,2013-04-10 20:38:00,
2013-04-10 16:43:00,83.8,67.0,30.01,East,80,12.0,18.0,57,0.00,,SCT060,0.00,VWS V14.01,2013-04-10 20:43:00,
2013-04-10 16:48:00,83.1,66.8,30.01,SE,146,14.0,16.0,58,0.00,,SCT060,0.00,VWS V14.01,2013-04-10 20:48:00,
2013-04-10 16:53:00,83.3,68.0,30.01,East,99,10.0,10.0,60,0.00,,SCT060,0.00,VWS V14.01,2013-04-10 20:53:00,
2013-04-10 16:58:00,84.4,68.0,30.01,East,80,12.0,14.0,58,0.00,,SCT060,0.00,VWS V14.01,2013-04-10 20:58:00,
2013-04-10 17:03:00,85.1,68.7,30.00,ENE,66,2.0,12.0,58,0.00,,SCT300,0.00,VWS V14.01,2013-04-10 21:03:00,
2013-04-10 17:08:00,85.7,67.2,30.00,SE,132,4.0,14.0,54,0.00,,SCT300,0.00,VWS V14.01,2013-04-10 21:08:00,
2013-04-10 17:14:00,85.8,66.7,30.00,ESE,121,10.0,16.0,53,0.00,,SCT300,0.00,VWS V14.01,2013-04-10 21:14:00,
2013-04-10 17:19:00,85.7,68.2,30.00,ESE,104,10.0,10.0,56,0.00,,SCT300,0.00,VWS V14.01,2013-04-10 21:19:00,
2013-04-10 17:24:00,85.5,67.5,30.00,ESE,122,2.0,14.0,55,0.00,,SCT300,0.00,VWS V14.01,2013-04-10 21:24:00,
2013-04-10 17:29:00,85.4,67.9,30.00,East,82,2.0,20.0,56,0.00,,SCT300,0.00,VWS V14.01,2013-04-10 21:29:00,
2013-04-10 17:34:00,85.3,68.3,30.00,ENE,77,10.0,18.0,57,0.00,,SCT300,0.00,VWS V14.01,2013-04-10 21:34:00,
2013-04-10 17:39:00,84.8,67.9,30.00,East,82,10.0,18.0,57,0.00,,SCT300,0.00,VWS V14.01,2013-04-10 21:39:00,
2013-04-10 17:44:00,84.5,67.6,30.00,ESE,116,6.0,24.0,57,0.00,,SCT300,0.00,VWS V14.01,2013-04-10 21:44:00,
2013-04-10 17:49:00,84.4,68.0,30.00,SE,140,8.0,18.0,58,0.00,,SCT300,0.00,VWS V14.01,2013-04-10 21:49:00,
2013-04-10 17:54:00,83.9,67.6,30.00,ENE,61,10.0,22.0,58,0.00,,SCT300,0.00,VWS V14.01,2013-04-10 21:54:00,
2013-04-10 17:59:00,83.1,67.8,30.00,ENE,74,14.0,16.0,60,0.00,,SCT300,0.00,VWS V14.01,2013-04-10 21:59:00,
2013-04-10 18:04:00,82.6,67.8,30.00,ESE,112,6.0,16.0,61,0.00,,SCT300,0.00,VWS V14.01,2013-04-10 22:04:00,
2013-04-10 18:09:00,82.5,68.2,30.01,East,97,10.0,16.0,62,0.00,,SCT300,0.00,VWS V14.01,2013-04-10 22:09:00,
2013-04-10 18:14:00,82.4,68.1,30.01,East,96,8.0,16.0,62,0.00,,SCT300,0.00,VWS V14.01,2013-04-10 22:14:00,
2013-04-10 18:19:00,82.1,67.8,30.01,ESE,102,4.0,12.0,62,0.00,,SCT300,0.00,VWS V14.01,2013-04-10 22:19:00,
2013-04-10 18:25:00,81.7,67.9,30.01,East,86,6.0,6.0,63,0.00,,SCT300,0.00,VWS V14.01,2013-04-10 22:25:00,
2013-04-10 18:30:00,81.3,68.0,30.01,ESE,109,10.0,10.0,64,0.00,,SCT300,0.00,VWS V14.01,2013-04-10 22:30:00,
2013-04-10 18:35:00,81.1,67.8,30.01,East,95,14.0,14.0,64,0.00,,SCT300,0.00,VWS V14.01,2013-04-10 22:35:00,
2013-04-10 18:40:00,80.8,67.9,30.01,ESE,109,16.0,16.0,65,0.00,,SCT300,0.00,VWS V14.01,2013-04-10 22:40:00,
2013-04-10 18:45:00,80.2,67.8,30.01,ENE,78,10.0,16.0,66,0.00,,SCT300,0.00,VWS V14.01,2013-04-10 22:45:00,
2013-04-10 18:50:00,79.8,67.9,30.01,East,93,18.0,18.0,67,0.00,,SCT300,0.00,VWS V14.01,2013-04-10 22:50:00,
2013-04-10 18:55:00,79.5,68.0,30.00,East,92,4.0,6.0,68,0.00,,SCT300,0.00,VWS V14.01,2013-04-10 22:55:00,
2013-04-10 19:00:00,79.3,68.3,30.00,East,95,8.0,12.0,69,0.00,,SCT300,0.00,VWS V14.01,2013-04-10 23:00:00,
2013-04-10 19:05:00,79.1,68.5,30.00,ESE,113,6.0,12.0,70,0.00,,SCT300,0.00,VWS V14.01,2013-04-10 23:05:00,
2013-04-10 19:10:00,78.8,68.2,30.00,ESE,121,2.0,8.0,70,0.00,,SCT300,0.00,VWS V14.01,2013-04-10 23:10:00,
2013-04-10 19:15:00,78.4,68.6,30.00,ESE,116,8.0,10.0,72,0.00,,SCT300,0.00,VWS V14.01,2013-04-10 23:15:00,
2013-04-10 19:21:00,78.0,68.7,30.00,East,99,8.0,10.0,73,0.00,,SCT300,0.00,VWS V14.01,2013-04-10 23:21:00,
2013-04-10 19:26:00,77.8,68.5,30.00,ESE,104,14.0,18.0,73,0.00,,SCT300,0.00,VWS V14.01,2013-04-10 23:26:00,
2013-04-10 19:31:00,77.6,68.7,30.01,ESE,121,6.0,16.0,74,0.00,,SCT300,0.00,VWS V14.01,2013-04-10 23:31:00,
2013-04-10 19:36:00,77.3,68.4,30.01,SE,132,10.0,30.0,74,0.00,,SCT300,0.00,VWS V14.01,2013-04-10 23:36:00,
2013-04-10 19:41:00,77.0,68.5,30.01,East,96,10.0,14.0,75,0.00,,SCT300,0.00,VWS V14.01,2013-04-10 23:41:00,
2013-04-10 19:46:00,76.7,68.6,30.01,ESE,116,12.0,12.0,76,0.00,,SCT300,0.00,VWS V14.01,2013-04-10 23:46:00,
2013-04-10 19:52:00,76.6,68.5,30.00,East,98,10.0,10.0,76,0.00,,SCT300,0.00,VWS V14.01,2013-04-10 23:52:00,
2013-04-10 19:57:00,76.4,68.7,30.00,East,89,6.0,10.0,77,0.00,,SCT300,0.00,VWS V14.01,2013-04-10 23:57:00,
2013-04-10 20:02:00,76.1,68.8,30.01,East,88,10.0,18.0,78,0.00,,BKN300,0.00,VWS V14.01,2013-04-11 00:02:00,
2013-04-10 20:07:00,75.8,68.8,30.01,ESE,103,0.0,16.0,79,0.00,,BKN300,0.00,VWS V14.01,2013-04-11 00:07:00,
2013-04-10 20:12:00,75.6,68.6,30.01,ENE,74,14.0,18.0,79,0.00,,BKN300,0.00,VWS V14.01,2013-04-11 00:12:00,
2013-04-10 20:17:00,75.5,68.9,30.01,East,98,6.0,24.0,80,0.00,,BKN300,0.00,VWS V14.01,2013-04-11 00:17:00,
2013-04-10 20:22:00,75.3,68.7,30.01,ESE,110,22.0,22.0,80,0.00,,BKN300,0.00,VWS V14.01,2013-04-11 00:22:00,
2013-04-10 20:27:00,75.0,68.8,30.01,ESE,116,16.0,20.0,81,0.00,,BKN300,0.00,VWS V14.01,2013-04-11 00:27:00,
2013-04-10 20:32:00,74.8,68.9,30.01,East,97,16.0,16.0,82,0.00,,BKN300,0.00,VWS V14.01,2013-04-11 00:32:00,
2013-04-10 20:37:00,74.6,68.8,30.01,ESE,105,6.0,16.0,82,0.00,,BKN300,0.00,VWS V14.01,2013-04-11 00:37:00,
2013-04-10 20:42:00,74.5,69.0,30.01,East,100,4.0,16.0,83,0.00,,BKN300,0.00,VWS V14.01,2013-04-11 00:42:00,
2013-04-10 20:48:00,74.5,69.0,30.02,East,82,12.0,14.0,83,0.00,,BKN300,0.00,VWS V14.01,2013-04-11 00:48:00,
2013-04-10 20:53:00,74.4,68.9,30.02,East,98,4.0,14.0,83,0.00,,BKN300,0.00,VWS V14.01,2013-04-11 00:53:00,
2013-04-10 20:58:00,74.3,69.2,30.02,ESE,113,14.0,16.0,84,0.00,,BKN300,0.00,VWS V14.01,2013-04-11 00:58:00,
2013-04-10 21:03:00,74.2,69.1,30.02,ESE,116,10.0,10.0,84,0.00,,SCT300,0.00,VWS V14.01,2013-04-11 01:03:00,
2013-04-10 21:08:00,74.0,69.2,30.02,East,97,4.0,10.0,85,0.00,,SCT300,0.00,VWS V14.01,2013-04-11 01:08:00,
2013-04-10 21:13:00,73.9,69.1,30.02,ESE,102,2.0,10.0,85,0.00,,SCT300,0.00,VWS V14.01,2013-04-11 01:13:00,
2013-04-10 21:18:00,73.9,69.1,30.02,ESE,109,2.0,14.0,85,0.00,,SCT300,0.00,VWS V14.01,2013-04-11 01:18:00,
2013-04-10 21:23:00,73.8,69.0,30.02,ESE,112,8.0,10.0,85,0.00,,SCT300,0.00,VWS V14.01,2013-04-11 01:23:00,
2013-04-10 21:28:00,73.7,69.3,30.02,ENE,70,10.0,12.0,86,0.00,,SCT300,0.00,VWS V14.01,2013-04-11 01:28:00,
2013-04-10 21:33:00,73.5,69.1,30.02,East,96,4.0,16.0,86,0.00,,SCT300,0.00,VWS V14.01,2013-04-11 01:33:00,
2013-04-10 21:38:00,73.4,69.3,30.02,ESE,109,8.0,12.0,87,0.00,,SCT300,0.00,VWS V14.01,2013-04-11 01:38:00,
2013-04-10 21:43:00,73.3,69.2,30.03,East,97,6.0,12.0,87,0.00,,SCT300,0.00,VWS V14.01,2013-04-11 01:43:00,
2013-04-10 21:48:00,73.2,69.1,30.03,East,88,2.0,16.0,87,0.00,,SCT300,0.00,VWS V14.01,2013-04-11 01:48:00,
2013-04-10 21:53:00,73.4,69.3,30.03,ESE,113,6.0,10.0,87,0.00,,SCT300,0.00,VWS V14.01,2013-04-11 01:53:00,
2013-04-10 21:58:00,73.3,69.2,30.03,East,97,4.0,18.0,87,0.00,,SCT300,0.00,VWS V14.01,2013-04-11 01:58:00,
2013-04-10 22:03:00,73.2,69.4,30.03,ESE,118,4.0,12.0,88,0.00,,FEW300,0.00,VWS V14.01,2013-04-11 02:03:00,
2013-04-10 22:08:00,73.1,69.3,30.03,East,96,6.0,10.0,88,0.00,,FEW300,0.00,VWS V14.01,2013-04-11 02:08:00,
2013-04-10 22:13:00,73.0,69.2,30.03,ESE,112,10.0,10.0,88,0.00,,FEW300,0.00,VWS V14.01,2013-04-11 02:13:00,
2013-04-10 22:19:00,73.0,69.2,30.03,ENE,75,4.0,10.0,88,0.00,,FEW300,0.00,VWS V14.01,2013-04-11 02:19:00,
2013-04-10 22:24:00,73.0,69.2,30.03,ESE,107,4.0,8.0,88,0.00,,FEW300,0.00,VWS V14.01,2013-04-11 02:24:00,
2013-04-10 22:29:00,73.0,69.2,30.03,ESE,106,6.0,14.0,88,0.00,,FEW300,0.00,VWS V14.01,2013-04-11 02:29:00,
2013-04-10 22:34:00,72.8,69.4,30.03,East,99,2.0,8.0,89,0.00,,FEW300,0.00,VWS V14.01,2013-04-11 02:34:00,
2013-04-10 22:39:00,72.7,69.3,30.03,ESE,110,8.0,12.0,89,0.00,,FEW300,0.00,VWS V14.01,2013-04-11 02:39:00,
2013-04-10 22:44:00,72.5,69.1,30.02,ESE,105,6.0,14.0,89,0.00,,FEW300,0.00,VWS V14.01,2013-04-11 02:44:00,
2013-04-10 22:49:00,72.4,69.3,30.02,ESE,121,8.0,14.0,90,0.00,,FEW300,0.00,VWS V14.01,2013-04-11 02:49:00,
2013-04-10 22:54:00,72.5,69.4,30.02,East,99,6.0,10.0,90,0.00,,FEW300,0.00,VWS V14.01,2013-04-11 02:54:00,
2013-04-10 22:59:00,72.5,69.4,30.02,NE,55,8.0,14.0,90,0.00,,FEW300,0.00,VWS V14.01,2013-04-11 02:59:00,
2013-04-10 23:04:00,72.4,69.3,30.02,East,80,2.0,12.0,90,0.00,,SCT050,0.00,VWS V14.01,2013-04-11 03:04:00,
2013-04-10 23:09:00,72.3,69.5,30.02,East,87,16.0,16.0,91,0.00,,SCT050,0.00,VWS V14.01,2013-04-11 03:09:00,
2013-04-10 23:14:00,72.2,69.4,30.02,ESE,108,6.0,6.0,91,0.00,,SCT050,0.00,VWS V14.01,2013-04-11 03:14:00,
2013-04-10 23:19:00,72.3,69.5,30.01,SE,131,10.0,18.0,91,0.00,,SCT050,0.00,VWS V14.01,2013-04-11 03:19:00,
2013-04-10 23:25:00,72.4,69.6,30.01,SE,134,2.0,4.0,91,0.00,,SCT050,0.00,VWS V14.01,2013-04-11 03:25:00,
2013-04-10 23:30:00,72.6,69.5,30.01,ESE,118,4.0,14.0,90,0.00,,SCT050,0.00,VWS V14.01,2013-04-11 03:30:00,
2013-04-10 23:35:00,72.6,69.5,30.02,East,99,4.0,4.0,90,0.00,,SCT050,0.00,VWS V14.01,2013-04-11 03:35:00,
2013-04-10 23:40:00,72.6,69.8,30.02,East,95,6.0,6.0,91,0.00,,SCT050,0.00,VWS V14.01,2013-04-11 03:40:00,
2013-04-10 23:45:00,72.5,69.4,30.02,ESE,116,8.0,8.0,90,0.00,,SCT050,0.00,VWS V14.01,2013-04-11 03:45:00,
2013-04-10 23:50:00,72.3,69.5,30.02,East,97,2.0,6.0,91,0.00,,SCT050,0.00,VWS V14.01,2013-04-11 03:50:00,
2013-04-10 23:55:00,72.4,69.6,30.02,ESE,105,4.0,6.0,91,0.00,,SCT050,0.00,VWS V14.01,2013-04-11 03:55:00,